Crookston, MN

2:40 AM CDT on April 27, 2017 (GMT -0500)
Crookston Municipal-Kirkwood

Weather History for KCKN - April, 2013

Change the Weather History Date:

Saturday, April 6, 2013

  Actual Average Record
Temperature  
Mean Temperature 32 °F -  
Max Temperature 35 °F 45 °F 66 °F (2012)
Min Temperature 30 °F 27 °F 12 °F (2007)
Degree Days  
Heating Degree Days 32    
Moisture  
Dew Point 30 °F    
Average Humidity 87    
Maximum Humidity 93    
Minimum Humidity 75    
Precipitation  
Precipitation 0.00 in - - ()
Sea Level Pressure  
Sea Level Pressure 29.75 in    
Wind  
Wind Speed 9 mph (NE)    
Max Wind Speed 16 mph    
Max Gust Speed -    
Visibility 10 miles    
Events Snow    
Averages and records for this station are not official NWS values.
T = Trace of Precipitation, MM = Missing Value Source: NWS Daily Summary

Daily Weather History Graph

Daily Weather History Graph

Search for Another Location

Airport or City:

Trip Planner

Search our weather history database for the weather conditions in past years. The results will help you decide how hot, cold, wet, or windy it might be!

Date:

Astronomy

Apr. 06, 2013 Rise Set
Actual Time 6:54 AM CDT 8:04 PM CDT
Civil Twilight 6:22 AM CDT 8:35 PM CDT
Nautical Twilight 5:44 AM CDT 9:14 PM CDT
Astronomical Twilight 5:03 AM CDT 9:55 PM CDT
Moon 4:54 AM CDT (4/6) 4:20 PM CDT (4/6)
Length of Visible Light 14h 13m
Length of Day
13h 09m
Waning Crescent, 15% of the Moon is Illuminated
Apr 6
Waning Crescent
Apr 10
New
Apr 18
First Quarter
Apr 25
Full
May 2
Last Quarter

Hourly Weather History & Observations

Time (CDT) Temp. Windchill Dew Point Humidity Pressure Visibility Wind Dir Wind Speed Gust Speed Precip Events Conditions
12:15 AM 32.0 °F 24.2 °F 26.6 °F 80% 29.83 in 10.0 mi ESE 9.2 mph - N/A   Scattered Clouds
12:34 AM 32.0 °F 24.2 °F 26.6 °F 80% 29.82 in 10.0 mi ESE 9.2 mph - N/A   Scattered Clouds
12:54 AM 33.8 °F 26.4 °F 26.6 °F 75% 29.82 in 10.0 mi ESE 9.2 mph - N/A   Clear
1:15 AM 33.8 °F 27.0 °F 26.6 °F 75% 29.81 in 10.0 mi ESE 8.1 mph - N/A   Clear
1:34 AM 33.8 °F 26.4 °F 26.6 °F 75% 29.81 in 10.0 mi ESE 9.2 mph - N/A   Scattered Clouds
1:54 AM 33.8 °F 27.7 °F 26.6 °F 75% 29.80 in 10.0 mi ESE 6.9 mph - N/A   Scattered Clouds
2:14 AM 32.0 °F 25.6 °F 26.6 °F 80% 29.79 in 10.0 mi ESE 6.9 mph - N/A   Scattered Clouds
2:34 AM 32.0 °F 26.4 °F 26.6 °F 80% 29.79 in 10.0 mi ESE 5.8 mph - N/A   Clear
2:55 AM 32.0 °F 26.4 °F 26.6 °F 80% 29.79 in 10.0 mi ESE 5.8 mph - N/A   Clear
3:15 AM 30.2 °F 24.3 °F 26.6 °F 86% 29.77 in 10.0 mi ESE 5.8 mph - N/A   Clear
3:34 AM 30.2 °F 25.4 °F 26.6 °F 86% 29.77 in 10.0 mi ESE 4.6 mph - N/A   Scattered Clouds
3:55 AM 30.2 °F 25.4 °F 26.6 °F 86% 29.76 in 10.0 mi East 4.6 mph - N/A   Scattered Clouds
4:14 AM 30.2 °F 25.4 °F 26.6 °F 86% 29.75 in 10.0 mi East 4.6 mph - N/A   Mostly Cloudy
4:34 AM 30.2 °F 24.3 °F 26.6 °F 86% 29.75 in 10.0 mi East 5.8 mph - N/A   Mostly Cloudy
4:55 AM 30.2 °F 24.3 °F 26.6 °F 86% 29.74 in 10.0 mi East 5.8 mph - N/A   Mostly Cloudy
5:15 AM 30.2 °F 22.6 °F 26.6 °F 86% 29.74 in 10.0 mi East 8.1 mph - N/A   Scattered Clouds
5:34 AM 30.2 °F 21.9 °F 26.6 °F 86% 29.71 in 10.0 mi ESE 9.2 mph - N/A   Overcast
5:55 AM 32.0 °F 25.6 °F 28.4 °F 87% 29.71 in 10.0 mi East 6.9 mph - N/A   Overcast
6:15 AM 32.0 °F 24.8 °F 28.4 °F 87% 29.71 in 10.0 mi ESE 8.1 mph - N/A Snow Light Snow
6:34 AM 32.0 °F 24.8 °F 28.4 °F 87% 29.71 in 10.0 mi ESE 8.1 mph - N/A   Scattered Clouds
6:55 AM 32.0 °F 25.6 °F 28.4 °F 87% 29.71 in 7.0 mi East 6.9 mph - N/A   Overcast
7:14 AM 32.0 °F 24.8 °F 30.2 °F 93% 29.71 in 7.0 mi ESE 8.1 mph - N/A   Overcast
7:34 AM 32.0 °F 26.4 °F 30.2 °F 93% 29.71 in 7.0 mi East 5.8 mph - N/A   Scattered Clouds
7:55 AM 32.0 °F 26.4 °F 30.2 °F 93% 29.71 in 7.0 mi East 5.8 mph - N/A Snow Light Snow
8:14 AM 32.0 °F 24.8 °F 30.2 °F 93% 29.71 in 7.0 mi East 8.1 mph - N/A Snow Light Snow
8:34 AM 32.0 °F 24.8 °F 30.2 °F 93% 29.71 in 10.0 mi East 8.1 mph - N/A   Overcast
8:55 AM 32.0 °F 24.8 °F 30.2 °F 93% 29.71 in 10.0 mi East 8.1 mph - N/A   Overcast
9:14 AM 33.8 °F 28.6 °F 30.2 °F 87% 29.70 in 10.0 mi East 5.8 mph - N/A   Overcast
9:34 AM 33.8 °F 27.7 °F 30.2 °F 87% 29.70 in 10.0 mi East 6.9 mph - N/A   Mostly Cloudy
9:55 AM 33.8 °F 28.6 °F 30.2 °F 87% 29.69 in 10.0 mi East 5.8 mph - N/A   Mostly Cloudy
10:14 AM 33.8 °F 29.6 °F 30.2 °F 87% 29.69 in 10.0 mi East 4.6 mph - N/A   Mostly Cloudy
10:34 AM 33.8 °F 30.8 °F 30.2 °F 87% 29.69 in 10.0 mi NE 3.5 mph - N/A   Scattered Clouds
10:55 AM 33.8 °F 28.6 °F 32.0 °F 93% 29.69 in 10.0 mi NE 5.8 mph - N/A   Clear
11:14 AM 33.8 °F 30.8 °F 30.2 °F 87% 29.69 in 10.0 mi NE 3.5 mph - N/A   Scattered Clouds
11:34 AM 35.6 °F 32.8 °F 32.0 °F 87% 29.69 in 10.0 mi NE 3.5 mph - N/A   Mostly Cloudy
11:55 AM 35.6 °F 31.7 °F 32.0 °F 87% 29.69 in 10.0 mi NE 4.6 mph - N/A   Overcast
12:14 PM 35.6 °F 30.7 °F 32.0 °F 87% 29.69 in 10.0 mi NNE 5.8 mph - N/A   Overcast
12:34 PM 35.6 °F 32.8 °F 32.0 °F 87% 29.69 in 10.0 mi NNE 3.5 mph - N/A   Overcast
12:55 PM 35.6 °F 31.7 °F 32.0 °F 87% 29.70 in 10.0 mi North 4.6 mph - N/A   Mostly Cloudy
1:14 PM 35.6 °F 29.2 °F 32.0 °F 87% 29.70 in 10.0 mi North 8.1 mph - N/A   Scattered Clouds
1:34 PM 35.6 °F 28.0 °F 32.0 °F 87% 29.70 in 10.0 mi North 10.4 mph - N/A   Mostly Cloudy
1:55 PM 35.6 °F 28.0 °F 32.0 °F 87% 29.70 in 10.0 mi North 10.4 mph - N/A   Scattered Clouds
2:14 PM 35.6 °F 27.1 °F 32.0 °F 87% 29.71 in 10.0 mi NNW 12.7 mph - N/A   Scattered Clouds
2:35 PM 35.6 °F 28.0 °F 32.0 °F 87% 29.71 in 10.0 mi North 10.4 mph - N/A   Mostly Cloudy
2:55 PM 35.6 °F 27.1 °F 32.0 °F 87% 29.71 in 10.0 mi North 12.7 mph - N/A   Overcast
3:14 PM 35.6 °F 26.6 °F 32.0 °F 87% 29.72 in 10.0 mi North 13.8 mph - N/A   Overcast
3:35 PM 35.6 °F 26.2 °F 32.0 °F 87% 29.72 in 10.0 mi North 15.0 mph - N/A   Overcast
3:54 PM 33.8 °F 23.9 °F 30.2 °F 87% 29.73 in 10.0 mi NNW 15.0 mph - N/A   Overcast
4:14 PM 33.8 °F 24.3 °F 30.2 °F 87% 29.73 in 10.0 mi North 13.8 mph - N/A   Overcast
4:35 PM 33.8 °F 23.5 °F 30.2 °F 87% 29.73 in 10.0 mi North 16.1 mph - N/A   Mostly Cloudy
4:54 PM 33.8 °F 23.5 °F 30.2 °F 87% 29.74 in 10.0 mi North 16.1 mph - N/A   Mostly Cloudy
5:14 PM 33.8 °F 23.5 °F 30.2 °F 87% 29.74 in 10.0 mi North 16.1 mph - N/A   Mostly Cloudy
5:35 PM 33.8 °F 24.8 °F 30.2 °F 87% 29.74 in 10.0 mi North 12.7 mph - N/A   Mostly Cloudy
5:54 PM 33.8 °F 23.9 °F 30.2 °F 87% 29.76 in 10.0 mi North 15.0 mph - N/A   Mostly Cloudy
6:14 PM 33.8 °F 24.8 °F 30.2 °F 87% 29.77 in 10.0 mi North 12.7 mph - N/A   Overcast
6:35 PM 33.8 °F 23.9 °F 30.2 °F 87% 29.77 in 10.0 mi North 15.0 mph - N/A   Mostly Cloudy
6:54 PM 33.8 °F 23.5 °F 30.2 °F 87% 29.78 in 10.0 mi North 16.1 mph - N/A   Overcast
7:14 PM 33.8 °F 23.9 °F 30.2 °F 87% 29.79 in 10.0 mi North 15.0 mph - N/A   Overcast
7:35 PM 33.8 °F 24.3 °F 30.2 °F 87% 29.80 in 7.0 mi North 13.8 mph - N/A   Overcast
7:54 PM 33.8 °F 23.9 °F 30.2 °F 87% 29.80 in 7.0 mi North 15.0 mph - N/A   Overcast
8:14 PM 32.0 °F 22.5 °F 30.2 °F 93% 29.80 in 7.0 mi North 12.7 mph - N/A   Overcast
8:35 PM 32.0 °F 22.5 °F 30.2 °F 93% 29.81 in 10.0 mi NNW 12.7 mph - N/A   Overcast
8:54 PM 32.0 °F 22.5 °F 30.2 °F 93% 29.81 in 10.0 mi NNW 12.7 mph - N/A   Overcast
9:15 PM 32.0 °F 22.5 °F 30.2 °F 93% 29.82 in 10.0 mi NNW 12.7 mph - N/A   Overcast
9:35 PM 32.0 °F 23.0 °F 30.2 °F 93% 29.82 in 10.0 mi North 11.5 mph - N/A   Overcast
9:54 PM 32.0 °F 22.5 °F 30.2 °F 93% 29.82 in 10.0 mi North 12.7 mph - N/A   Overcast
10:15 PM 32.0 °F 22.1 °F 30.2 °F 93% 29.83 in 10.0 mi North 13.8 mph - N/A   Overcast
10:35 PM 32.0 °F 22.5 °F 30.2 °F 93% 29.84 in 10.0 mi NNW 12.7 mph - N/A   Overcast
10:54 PM 32.0 °F 23.0 °F 30.2 °F 93% 29.84 in 10.0 mi North 11.5 mph - N/A   Overcast
11:15 PM 32.0 °F 23.0 °F 30.2 °F 93% 29.84 in 10.0 mi North 11.5 mph - N/A   Overcast
11:35 PM 32.0 °F 23.0 °F 30.2 °F 93% 29.84 in 10.0 mi North 11.5 mph - N/A   Overcast
11:54 PM 32.0 °F 23.6 °F 30.2 °F 93% 29.85 in 10.0 mi North 10.4 mph - N/A   Overcast